Flag for Anguilla Weather past 2 weeks in The Valley, Anguilla

Now
77 °F

Passing clouds.


Feels Like: 79 °F
Forecast: 78 / 83 °F
Wind: 13 mph from East

Location: Juliana Airport - Saint Maarten

Current Time: Mar 26, 2015 at 11:58:30 PM

Latest Report: Mar 26, 2015 at 11:00 PM


Visibility: N/A

Pressure: 30.07 "Hg

Humidity: 74%

Dew point: 68 °F

Location of The ValleyLocation

Historic Weather in The Valley — Graph

°F

The Valley temperature yesterday

Maximum temperature yesterday: 84 °F (at 12:00 PM)
Minimum temperature yesterday: 77 °F (at 12:00 AM)
Average temperature yesterday: 80 °F

Past Weeks' High & Low Weather Summary

 TemperatureHumidityPressure
High84 °F (Mar 13, 2:00 PM)83% (Mar 16, 2:00 AM)30.12 "Hg (Mar 16, 2:00 AM)
Low73 °F (Mar 16, 2:00 AM)44% (Mar 15, 6:00 AM)29.92 "Hg (Mar 15, 8:00 PM)
Average79 °F67%30.03 "Hg
* Reported Mar 11 10:00 PM — Mar 26 10:00 PM, The Valley, Weather by CustomWeather, © 2015

Note: Actual official high and low records may vary slightly from our data, if they occured in-between our weather recording intervals... More about our weather records

Advertising

The Valley weather history for previous 24 hours

 ConditionsComfort  
Time TempWeatherWind HumidityBarometerVisibility
10:00 PM
Thu, Mar 26
79 °FPassing clouds.12 mph70%30.07 "HgN/A
9:00 PM79 °FPassing clouds.13 mph74%30.07 "HgN/A
8:00 PM79 °FPassing clouds.14 mph70%30.07 "HgN/A
7:00 PM79 °FPassing clouds.12 mph70%30.04 "HgN/A
6:00 PM81 °FPartly sunny.12 mph66%30.04 "HgN/A
5:00 PM81 °FScattered clouds.14 mph66%30.01 "HgN/A
4:00 PM82 °FScattered clouds.14 mph62%30.01 "HgN/A
3:00 PM82 °FScattered clouds.13 mph58%30.01 "HgN/A
2:00 PM82 °FScattered clouds.13 mph62%30.04 "HgN/A
1:00 PM82 °FScattered clouds.13 mph62%30.07 "HgN/A
12:00 PM82 °FPassing clouds.12 mph58%30.07 "HgN/A
11:00 AM82 °FPassing clouds.13 mph58%30.09 "HgN/A
10:00 AM82 °FPassing clouds.15 mph58%30.09 "HgN/A
9:00 AM81 °FPassing clouds.14 mph62%30.09 "HgN/A
8:00 AM79 °FScattered clouds.13 mph65%30.07 "HgN/A
7:00 AM77 °FPassing clouds.10 mph74%30.04 "HgN/A
6:00 AM77 °FPassing clouds.9 mph74%30.04 "HgN/A
5:00 AM77 °FPassing clouds.12 mph74%30.04 "HgN/A
4:00 AM77 °FPassing clouds.12 mph69%30.01 "HgN/A
3:00 AM77 °FPassing clouds.13 mph69%30.04 "HgN/A
2:00 AM77 °FPassing clouds.12 mph74%30.04 "HgN/A
1:00 AM77 °FPassing clouds.12 mph74%30.07 "HgN/A
12:00 AM77 °FPassing clouds.13 mph74%30.09 "HgN/A
11:00 PM
Wed, Mar 25
79 °FPassing clouds.10 mph74%30.09 "HgN/A
Weather by CustomWeather, © 2015

See weather overviewHow to use our weather pages